, AK

(GMT )
Aniak

Weather History for PANI - October, 2012

Change the Weather History Date:

Wednesday, October 3, 2012

  Actual Average Record
Temperature  
Mean Temperature 48 °F -  
Max Temperature 51 °F 41 °F 55 °F (2001)
Min Temperature 44 °F 29 °F 23 °F (1998)
Degree Days  
Heating Degree Days 18    
Moisture  
Dew Point 39 °F    
Average Humidity 73    
Maximum Humidity 87    
Minimum Humidity 46    
Precipitation  
Precipitation 0.00 in - - ()
Sea Level Pressure  
Sea Level Pressure 29.79 in    
Wind  
Wind Speed 11 mph (ESE)    
Max Wind Speed 20 mph    
Max Gust Speed 30 mph    
Visibility 10 miles    
Events      
Averages and records for this station are not official NWS values.
T = Trace of Precipitation, MM = Missing Value Source: NWS Daily Summary

Daily Weather History Graph

Daily Weather History Graph

Search for Another Location

Airport or City:

Trip Planner

Search our weather history database for the weather conditions in past years. The results will help you decide how hot, cold, wet, or windy it might be!

Date:

Astronomy

Oct. 03, 2012 Rise Set
Actual Time 8:51 AM AKDT 8:00 PM AKDT
Civil Twilight 8:08 AM AKDT 8:44 PM AKDT
Nautical Twilight 7:17 AM AKDT 9:34 PM AKDT
Astronomical Twilight 6:23 AM AKDT 10:28 PM AKDT
Moon 8:41 PM AKDT (10/3) 1:43 PM AKDT (10/3)
Length of Visible Light 12h 35m
Length of Day
11h 08m
Waning Gibbous, 88% of the Moon is Illuminated
Oct 3
Waning Gibbous
Oct 7
Last Quarter
Oct 15
New
Oct 21
First Quarter
Oct 29
Full

Hourly Weather History & Observations

Time (AKDT) Temp. Windchill Dew Point Humidity Pressure Visibility Wind Dir Wind Speed Gust Speed Precip Events Conditions
12:16 AM 46.4 °F 41.5 °F 37.4 °F 71% 29.93 in 10.0 mi ESE 10.4 mph 18.4 mph N/A   Overcast
12:36 AM 46.4 °F 41.9 °F 37.4 °F 71% 29.93 in 10.0 mi ESE 9.2 mph - N/A   Overcast
12:56 AM 46.4 °F 42.4 °F 37.4 °F 71% 29.93 in 10.0 mi ESE 8.1 mph - N/A   Overcast
1:16 AM 46.4 °F 41.9 °F 37.4 °F 71% 29.93 in 10.0 mi SE 9.2 mph - N/A   Overcast
1:36 AM 46.4 °F 42.9 °F 37.4 °F 71% 29.93 in 10.0 mi SE 6.9 mph 17.3 mph N/A   Overcast
1:56 AM 46.4 °F 41.9 °F 37.4 °F 71% 29.94 in 10.0 mi SE 9.2 mph - N/A   Overcast
2:16 AM 46.4 °F 42.4 °F 37.4 °F 71% 29.93 in 10.0 mi SE 8.1 mph - N/A   Overcast
2:36 AM 46.4 °F 41.9 °F 37.4 °F 71% 29.95 in 10.0 mi SE 9.2 mph 17.3 mph N/A   Overcast
2:56 AM 46.4 °F 41.9 °F 37.4 °F 71% 29.94 in 10.0 mi SE 9.2 mph 18.4 mph N/A   Overcast
3:16 AM 46.4 °F 41.9 °F 37.4 °F 71% 29.94 in 10.0 mi SE 9.2 mph 17.3 mph N/A   Overcast
3:36 AM 46.4 °F 41.5 °F 37.4 °F 71% 29.95 in 10.0 mi SE 10.4 mph 18.4 mph N/A   Overcast
3:56 AM 46.4 °F 42.4 °F 37.4 °F 71% 29.95 in 10.0 mi SE 8.1 mph 18.4 mph N/A   Overcast
4:16 AM 46.4 °F 40.7 °F 37.4 °F 71% 29.94 in 10.0 mi SE 12.7 mph 20.7 mph N/A   Overcast
4:36 AM 46.4 °F 41.9 °F 37.4 °F 71% 29.95 in 10.0 mi SE 9.2 mph 17.3 mph N/A   Overcast
4:56 AM 46.4 °F 41.5 °F 37.4 °F 71% 29.95 in 10.0 mi SE 10.4 mph 19.6 mph N/A   Overcast
5:16 AM 46.4 °F 41.5 °F 37.4 °F 71% 29.95 in 10.0 mi SE 10.4 mph 18.4 mph N/A   Overcast
5:36 AM 46.4 °F 41.5 °F 37.4 °F 71% 29.95 in 10.0 mi SE 10.4 mph 19.6 mph N/A   Overcast
5:56 AM 46.4 °F 41.1 °F 37.4 °F 71% 29.95 in 10.0 mi SE 11.5 mph 19.6 mph N/A   Overcast
6:16 AM 46.4 °F 41.5 °F 37.4 °F 71% 29.95 in 10.0 mi SE 10.4 mph 16.1 mph N/A   Overcast
6:36 AM 46.4 °F 42.9 °F 37.4 °F 71% 29.95 in 10.0 mi SE 6.9 mph 19.6 mph N/A   Overcast
6:56 AM 46.4 °F 41.9 °F 37.4 °F 71% 29.95 in 10.0 mi ESE 9.2 mph 17.3 mph N/A   Overcast
7:16 AM 46.4 °F 41.1 °F 37.4 °F 71% 29.94 in 10.0 mi ESE 11.5 mph 17.3 mph N/A   Overcast
7:36 AM 46.4 °F 41.5 °F 37.4 °F 71% 29.94 in 10.0 mi ESE 10.4 mph - N/A   Overcast
7:56 AM 44.6 °F 39.7 °F 37.4 °F 76% 29.93 in 10.0 mi ESE 9.2 mph - N/A   Mostly Cloudy
8:16 AM 44.6 °F 39.2 °F 37.4 °F 76% 29.92 in 10.0 mi ESE 10.4 mph - N/A   Clear
8:36 AM 44.6 °F 38.8 °F 37.4 °F 76% 29.92 in 10.0 mi ESE 11.5 mph - N/A   Mostly Cloudy
8:56 AM 46.4 °F 41.1 °F 37.4 °F 71% 29.91 in 10.0 mi ESE 11.5 mph 18.4 mph N/A   Overcast
9:16 AM 46.4 °F 40.1 °F 37.4 °F 71% 29.90 in 10.0 mi ESE 15.0 mph 20.7 mph N/A   Overcast
9:36 AM 46.4 °F 41.5 °F 37.4 °F 71% 29.90 in 10.0 mi ESE 10.4 mph 23.0 mph N/A   Overcast
9:56 AM 46.4 °F 41.5 °F 37.4 °F 71% 29.89 in 10.0 mi ESE 10.4 mph - N/A   Overcast
10:16 AM 46.4 °F 40.4 °F 37.4 °F 71% 29.88 in 10.0 mi ESE 13.8 mph 19.6 mph N/A   Overcast
10:36 AM 48.2 °F - 37.4 °F 66% 29.87 in 10.0 mi ESE 12.7 mph 19.6 mph N/A   Overcast
10:56 AM 48.2 °F - 39.2 °F 71% 29.85 in 10.0 mi ESE 17.3 mph 23.0 mph N/A   Partly Cloudy
11:16 AM 50.0 °F - 39.2 °F 66% 29.85 in 10.0 mi SE 12.7 mph 26.5 mph N/A   Clear
11:36 AM 50.0 °F - 37.4 °F 62% 29.85 in 10.0 mi ESE 16.1 mph 25.3 mph N/A   Scattered Clouds
11:56 AM 50.0 °F - 39.2 °F 66% 29.84 in 10.0 mi SE 15.0 mph 24.2 mph N/A   Mostly Cloudy
12:16 PM 48.2 °F - 37.4 °F 66% 29.84 in 10.0 mi SE 11.5 mph 20.7 mph N/A   Mostly Cloudy
12:36 PM 50.0 °F - 37.4 °F 62% 29.81 in 10.0 mi SE 17.3 mph 25.3 mph N/A   Scattered Clouds
12:56 PM 50.0 °F - 37.4 °F 62% 29.81 in 10.0 mi SE 12.7 mph 23.0 mph N/A   Partly Cloudy
1:16 PM 50.0 °F - 37.4 °F 62% 29.81 in 10.0 mi SE 17.3 mph 27.6 mph N/A   Clear
1:36 PM 50.0 °F - 37.4 °F 62% 29.80 in 10.0 mi SE 13.8 mph 24.2 mph N/A   Clear
1:56 PM 50.0 °F - 37.4 °F 62% 29.79 in 10.0 mi SE 16.1 mph 26.5 mph N/A   Scattered Clouds
2:16 PM 50.0 °F - 37.4 °F 62% 29.78 in 10.0 mi SE 12.7 mph 29.9 mph N/A   Overcast
2:36 PM 51.8 °F - 37.4 °F 58% 29.76 in 10.0 mi SE 17.3 mph 25.3 mph N/A   Mostly Cloudy
2:56 PM 51.8 °F - 37.4 °F 58% 29.75 in 10.0 mi SE 16.1 mph 24.2 mph N/A   Partly Cloudy
3:16 PM 51.8 °F - 37.4 °F 58% 29.74 in 10.0 mi ESE 16.1 mph 27.6 mph N/A   Scattered Clouds
3:36 PM 51.8 °F - 37.4 °F 58% 29.73 in 10.0 mi SE 15.0 mph 23.0 mph N/A   Mostly Cloudy
3:56 PM 51.8 °F - 37.4 °F 58% 29.71 in 10.0 mi SE 15.0 mph 28.8 mph N/A   Overcast
4:16 PM 51.8 °F - 37.4 °F 58% 29.71 in 10.0 mi SE 12.7 mph 27.6 mph N/A   Overcast
4:36 PM 48.2 °F - 39.2 °F 71% 29.70 in 10.0 mi ESE 13.8 mph 24.2 mph N/A   Overcast
4:56 PM 48.2 °F - 41.0 °F 76% 29.70 in 10.0 mi ESE 15.0 mph 23.0 mph N/A   Overcast
5:16 PM 46.4 °F 40.4 °F 42.8 °F 87% 29.68 in 10.0 mi East 13.8 mph 21.9 mph N/A   Overcast
5:36 PM 46.4 °F 41.1 °F 42.8 °F 87% 29.67 in 10.0 mi East 11.5 mph - N/A   Overcast
5:56 PM 46.4 °F 41.9 °F 42.8 °F 87% 29.65 in 10.0 mi East 9.2 mph - N/A   Overcast
6:16 PM 46.4 °F 39.0 °F 42.8 °F 87% 29.61 in 10.0 mi East 19.6 mph - N/A   Overcast
6:36 PM 48.2 °F - 42.8 °F 82% 29.61 in 10.0 mi ESE 15.0 mph 23.0 mph N/A   Overcast
6:56 PM 48.2 °F - 42.8 °F 82% 29.60 in 10.0 mi ESE 16.1 mph - N/A   Overcast
7:16 PM 48.2 °F - 42.8 °F 82% 29.60 in 10.0 mi SE 11.5 mph 19.6 mph N/A   Overcast
7:36 PM 48.2 °F - 42.8 °F 82% 29.58 in 10.0 mi ESE 15.0 mph 20.7 mph N/A   Overcast
7:56 PM 48.2 °F - 42.8 °F 82% 29.56 in 10.0 mi ESE 17.3 mph 23.0 mph N/A   Mostly Cloudy
8:16 PM 48.2 °F - 42.8 °F 82% 29.55 in 10.0 mi ESE 18.4 mph 23.0 mph N/A   Overcast
8:36 PM 48.2 °F - 42.8 °F 82% 29.55 in 10.0 mi ESE 12.7 mph - N/A   Overcast
8:56 PM 48.2 °F - 42.8 °F 82% 29.55 in 10.0 mi ESE 15.0 mph - N/A   Overcast
9:16 PM 48.2 °F - 42.8 °F 82% 29.54 in 10.0 mi ESE 18.4 mph 26.5 mph N/A   Overcast
9:36 PM 48.2 °F - 42.8 °F 82% 29.54 in 10.0 mi ESE 19.6 mph 28.8 mph N/A   Overcast
9:56 PM 48.2 °F - 44.6 °F 87% 29.53 in 10.0 mi ESE 16.1 mph 24.2 mph N/A   Overcast
10:16 PM 48.2 °F - 44.6 °F 87% 29.52 in 10.0 mi ESE 17.3 mph 23.0 mph N/A   Overcast
10:36 PM 48.2 °F - 44.6 °F 87% 29.52 in 10.0 mi ESE 15.0 mph 20.7 mph N/A   Overcast
10:56 PM 48.2 °F - 44.6 °F 87% 29.53 in 10.0 mi ESE 8.1 mph - N/A   Overcast
11:16 PM 48.2 °F - 44.6 °F 87% 29.51 in 10.0 mi ESE 11.5 mph - N/A   Overcast
11:36 PM 48.2 °F - 44.6 °F 87% 29.50 in 10.0 mi SE 12.7 mph 17.3 mph N/A   Overcast
11:56 PM 48.2 °F - 44.6 °F 87% 29.50 in 10.0 mi ESE 11.5 mph 20.7 mph N/A   Overcast